period_start,C,m1,H,J0,J1,J2,J3,J4,J5,JA,JB,JC,JD,JJ,JK,JN,#
2015-09-19 00:04:03,0.02,0.45,0.00,22.30,27.67,30.53,14.74,48.91,1021.75,2037.03,3289.69,3104.40,3370.00,600.23,600.65,49.92,0000 0000 0000 0000 000000
2015-09-19 00:09:05,0.01,0.45,0.00,22.38,27.69,30.55,14.73,48.85,1021.71,2037.01,3289.26,3104.05,3370.00,599.99,600.28,49.97,0000 0000 0000 0000 000000
2015-09-19 00:14:06,0.00,0.46,0.00,22.22,27.70,30.62,14.74,48.88,1021.80,2037.00,3289.01,3104.00,3369.91,599.83,600.53,50.02,0000 0000 0000 0000 000000
2015-09-19 00:19:08,0.00,0.46,0.00,22.13,27.70,30.68,14.71,48.84,1021.82,2037.00,3288.99,3104.00,3369.55,599.92,600.69,50.07,0000 0000 0000 0000 000000
2015-09-19 00:24:09,0.01,0.46,0.00,22.11,27.72,30.69,14.62,48.81,1021.71,2037.00,3288.61,3103.95,3369.12,600.11,600.74,50.12,0000 0000 0000 0000 000000
2015-09-19 00:29:10,0.01,0.46,0.00,22.35,27.72,30.60,14.71,48.97,1021.80,2037.00,3288.06,3103.74,3369.01,599.90,600.31,50.17,0000 0000 0000 0000 000000
2015-09-19 00:34:12,0.01,0.46,0.00,22.51,27.75,30.62,14.66,48.91,1021.83,2037.00,3288.00,3103.16,3369.00,600.07,600.23,50.22,0000 0000 0000 0000 000000
2015-09-19 00:39:13,0.00,0.46,0.00,22.37,27.76,30.62,14.77,48.93,1021.66,2037.00,3287.91,3103.01,3368.87,599.97,600.21,50.27,0000 0000 0000 0000 000000
2015-09-19 00:44:15,0.02,0.46,0.00,22.26,27.77,30.69,14.76,49.08,1021.60,2037.00,3287.26,3103.00,3368.33,599.88,600.34,50.32,0000 0000 0000 0000 000000
2015-09-19 00:49:16,0.00,0.46,0.00,22.22,27.78,30.71,14.71,48.95,1021.56,2036.99,3287.00,3102.96,3368.02,599.64,600.16,50.37,0000 0000 0000 0000 000000
2015-09-19 00:54:17,0.01,0.46,0.00,22.44,27.80,30.62,14.62,48.93,1021.53,2036.98,3287.00,3102.66,3368.00,600.06,600.20,50.42,0000 0000 0000 0000 000000
2015-09-19 00:59:18,0.01,0.46,0.00,22.55,27.82,30.64,14.66,48.91,1021.51,2036.96,3286.72,3102.08,3367.96,599.99,599.78,50.47,0000 0000 0000 0000 000000
2015-09-19 01:04:19,0.01,0.46,0.00,22.39,27.82,30.70,14.72,48.95,1021.51,2036.95,3286.12,3102.00,3367.64,600.05,600.17,50.52,0000 0000 0000 0000 000000
2015-09-19 01:09:20,0.00,0.46,0.00,22.29,27.84,30.78,14.73,48.95,1021.50,2036.92,3286.00,3102.00,3367.16,600.19,600.53,50.57,0000 0000 0000 0000 000000
2015-09-19 01:14:22,-0.01,0.46,0.00,22.28,27.85,30.77,14.68,48.90,1021.50,2036.85,3285.98,3101.98,3367.00,599.70,600.06,50.63,0000 0000 0000 0000 000000
2015-09-19 01:19:23,-0.01,0.46,0.00,22.53,27.86,30.70,14.67,49.02,1021.50,2036.51,3285.42,3101.76,3367.00,600.17,600.00,50.68,0000 0000 0000 0000 000000
2015-09-19 01:24:24,0.02,0.46,0.00,22.60,27.87,30.73,14.66,48.81,1021.50,2036.46,3285.03,3101.21,3366.94,599.96,599.66,50.73,0000 0000 0000 0000 000000
2015-09-19 01:29:26,0.01,0.46,0.00,22.44,27.88,30.76,14.66,48.87,1021.50,2036.37,3284.99,3101.04,3366.45,599.77,599.80,50.78,0000 0000 0000 0000 000000
2015-09-19 01:34:27,-0.02,0.46,0.00,22.40,27.90,30.74,14.72,48.88,1021.50,2036.16,3284.90,3101.00,3366.05,600.13,600.17,50.83,0000 0000 0000 0000 000000
2015-09-19 01:39:28,0.02,0.46,0.00,22.64,27.90,30.70,14.65,48.79,1021.50,2036.10,3284.38,3101.00,3366.00,600.04,599.57,50.88,0000 0000 0000 0000 000000
2015-09-19 01:44:30,-0.01,0.46,0.00,22.63,27.91,30.73,14.66,48.85,1021.50,2036.02,3284.01,3100.94,3366.00,599.69,599.35,50.93,0000 0000 0000 0000 000000
2015-09-19 01:49:31,0.01,0.46,0.00,22.49,27.92,30.77,14.66,48.85,1021.50,2036.04,3283.97,3100.66,3365.94,600.07,599.99,50.98,0000 0000 0000 0000 000000
2015-09-19 01:54:32,0.03,0.46,0.00,22.53,27.92,30.73,14.59,48.79,1021.50,2036.02,3283.33,3100.08,3365.27,599.78,599.63,51.03,0000 0000 0000 0000 000000
2015-09-19 01:59:34,0.00,0.46,0.00,22.75,27.93,30.72,14.69,48.79,1021.50,2036.01,3283.01,3100.00,3365.01,600.37,599.83,51.08,0000 0000 0000 0000 000000
2015-09-19 02:04:35,0.00,0.46,0.00,22.66,27.95,30.73,14.66,48.92,1021.50,2036.00,3282.91,3099.98,3364.99,600.09,599.67,51.13,0000 0000 0000 0000 000000
2015-09-19 02:09:36,0.01,0.47,0.00,22.63,27.95,30.71,14.63,48.71,1021.50,2036.00,3282.34,3099.85,3364.89,599.89,599.39,51.18,0000 0000 0000 0000 000000
2015-09-19 02:14:37,0.03,0.47,0.00,22.82,27.96,30.69,14.64,48.75,1021.50,2036.00,3282.00,3099.13,3364.16,600.06,599.38,51.23,0000 0000 0000 0000 000000
2015-09-19 02:19:38,0.00,0.47,0.00,22.71,27.97,30.75,14.67,48.73,1021.50,2036.00,3281.84,3099.02,3364.00,599.93,599.48,51.28,0000 0000 0000 0000 000000
2015-09-19 02:24:40,0.01,0.47,0.00,22.58,27.97,30.82,14.66,48.67,1021.50,2036.00,3281.21,3099.00,3363.99,600.22,599.96,51.33,0000 0000 0000 0000 000000
2015-09-19 02:29:41,0.00,0.47,0.00,22.55,27.97,30.81,14.65,48.81,1021.50,2036.00,3281.02,3098.99,3363.97,599.96,599.78,51.38,0000 0000 0000 0000 000000
2015-09-19 02:34:42,0.01,0.47,0.00,22.77,27.98,30.76,14.66,48.80,1021.50,2036.00,3281.00,3098.91,3363.53,600.04,599.31,51.43,0000 0000 0000 0000 000000
2015-09-19 02:39:44,0.01,0.47,0.00,22.85,28.00,30.80,14.58,48.77,1021.50,2036.00,3280.90,3098.57,3363.06,600.11,599.29,51.49,0000 0000 0000 0000 000000
2015-09-19 02:44:45,0.02,0.47,0.00,22.73,28.00,30.80,14.56,48.73,1021.50,2036.00,3280.31,3098.12,3363.00,599.75,599.22,51.54,0000 0000 0000 0000 000000
2015-09-19 02:49:46,0.00,0.47,0.00,22.88,28.02,30.75,14.56,48.78,1021.50,2036.00,3280.01,3098.00,3362.98,599.68,598.86,51.59,0000 0000 0000 0000 000000
2015-09-19 02:54:47,0.01,0.47,0.00,22.90,28.02,30.82,14.62,48.76,1021.50,2035.99,3279.90,3098.00,3362.81,599.91,599.09,51.64,0000 0000 0000 0000 000000
2015-09-19 02:59:48,0.02,0.47,0.00,22.74,28.03,30.84,14.62,48.97,1021.50,2035.99,3279.32,3097.92,3362.26,600.02,599.44,51.69,0000 0000 0000 0000 000000
2015-09-19 03:04:50,0.01,0.47,0.00,22.70,28.05,30.84,14.74,48.91,1021.50,2035.97,3279.00,3097.37,3362.01,600.13,599.63,51.74,0000 0000 0000 0000 000000
2015-09-19 03:09:51,0.01,0.47,0.00,22.91,28.05,30.79,14.74,48.80,1021.50,2035.98,3278.73,3097.03,3361.99,600.37,599.49,51.79,0000 0000 0000 0000 000000
2015-09-19 03:14:52,0.01,0.48,0.00,22.96,28.06,30.85,14.59,48.63,1021.50,2035.95,3278.04,3097.00,3361.47,599.66,598.63,51.84,0000 0000 0000 0000 000000
2015-09-19 03:19:53,0.00,0.48,0.00,22.93,28.07,30.81,14.62,48.72,1021.49,2035.94,3278.00,3096.97,3361.04,599.93,598.92,51.89,0000 0000 0000 0000 000000
2015-09-19 03:24:54,0.00,0.48,0.00,23.08,28.07,30.83,14.68,48.64,1021.48,2035.93,3277.83,3096.74,3361.00,600.29,598.98,51.94,0000 0000 0000 0000 000000
2015-09-19 03:29:56,0.02,0.48,0.00,22.96,28.09,30.82,14.59,48.73,1021.41,2035.90,3277.20,3096.20,3360.99,599.83,598.74,51.99,0000 0000 0000 0000 000000
2015-09-19 03:34:57,-0.01,0.48,0.00,22.98,28.10,30.80,14.61,48.74,1021.39,2035.74,3277.01,3096.02,3360.85,599.86,598.79,52.04,0000 0000 0000 0000 000000
2015-09-19 03:39:59,-0.02,0.48,0.00,23.09,28.10,30.81,14.54,48.77,1021.38,2035.35,3276.99,3096.00,3360.22,599.58,598.15,52.09,0000 0000 0000 0000 000000
2015-09-19 03:45:00,0.00,0.48,0.00,22.96,28.11,30.86,14.68,48.68,1021.27,2035.26,3276.52,3095.97,3360.02,600.23,599.08,52.14,0000 0000 0000 0000 000000
2015-09-19 03:50:01,-0.00,0.48,0.00,22.93,28.12,30.83,14.65,48.84,1021.25,2035.09,3276.03,3095.92,3360.00,600.14,599.02,52.19,0000 0000 0000 0000 000000
2015-09-19 03:55:02,0.01,0.48,0.00,23.08,28.12,30.85,14.61,48.72,1021.20,2035.06,3276.00,3095.35,3359.95,600.08,598.64,52.24,0000 0000 0000 0000 000000
2015-09-19 04:00:04,0.02,0.48,0.00,22.98,28.12,30.87,14.67,48.68,1021.12,2035.04,3275.78,3095.03,3359.39,600.00,598.89,52.29,0000 0000 0000 0000 000000
2015-09-19 04:05:05,0.01,0.48,0.00,22.85,28.12,30.86,14.56,48.63,1021.07,2035.02,3275.16,3095.00,3359.03,599.93,598.84,52.34,0000 0000 0000 0000 000000
2015-09-19 04:10:06,-0.00,0.48,0.00,22.98,28.13,30.85,14.61,48.73,1021.04,2035.02,3275.01,3094.99,3359.00,599.79,598.55,52.39,0000 0000 0000 0000 000000
2015-09-19 04:15:07,0.00,0.48,0.00,22.95,28.15,30.89,14.57,48.69,1021.03,2035.01,3274.99,3094.93,3358.98,599.96,598.75,52.45,0000 0000 0000 0000 000000
2015-09-19 04:20:08,0.01,0.48,0.00,22.91,28.15,30.83,14.53,48.67,1021.04,2035.00,3274.95,3094.63,3358.82,599.92,598.83,52.50,0000 0000 0000 0000 000000
2015-09-19 04:25:10,0.02,0.48,0.00,22.98,28.15,30.84,14.67,48.71,1021.04,2035.00,3274.70,3094.48,3358.67,600.06,598.70,52.55,0000 0000 0000 0000 000000
2015-09-19 04:30:11,0.02,0.48,0.00,23.07,28.16,30.82,14.63,48.79,1021.02,2035.01,3274.01,3094.05,3358.18,600.05,598.56,52.60,0000 0000 0000 0000 000000
2015-09-19 04:35:12,0.00,0.48,0.00,22.99,28.17,30.82,14.59,48.84,1021.01,2035.01,3273.92,3094.00,3358.01,599.85,598.54,52.65,0000 0000 0000 0000 000000
2015-09-19 04:40:13,0.01,0.48,0.00,23.02,28.17,30.82,14.70,48.76,1021.01,2035.01,3273.52,3094.00,3358.00,599.98,598.59,52.70,0000 0000 0000 0000 000000
2015-09-19 04:45:15,0.00,0.48,0.00,23.03,28.17,30.83,14.53,48.67,1021.01,2035.00,3273.07,3093.96,3357.94,599.73,598.27,52.75,0000 0000 0000 0000 000000
2015-09-19 04:50:16,0.01,0.48,0.00,23.05,28.17,30.81,14.59,48.75,1021.01,2035.00,3273.00,3093.80,3357.60,599.98,598.51,52.80,0000 0000 0000 0000 000000
2015-09-19 04:55:18,0.02,0.48,0.00,23.04,28.17,30.83,14.54,48.66,1021.01,2035.00,3272.87,3093.32,3357.16,599.90,598.33,52.85,0000 0000 0000 0000 000000
2015-09-19 05:00:19,0.01,0.48,0.00,22.92,28.17,30.82,14.62,48.74,1021.00,2035.00,3272.07,3093.02,3357.00,599.95,598.70,52.90,0000 0000 0000 0000 000000
2015-09-19 05:05:20,0.00,0.48,0.00,23.06,28.17,30.84,14.60,48.72,1020.99,2035.00,3272.00,3093.00,3356.93,599.58,598.06,52.95,0000 0000 0000 0000 000000
2015-09-19 05:10:21,0.00,0.48,0.00,22.96,28.17,30.84,14.63,48.78,1020.94,2035.00,3271.97,3092.98,3356.85,599.79,598.51,53.00,0000 0000 0000 0000 000000
2015-09-19 05:15:23,0.02,0.49,0.00,23.02,28.17,30.83,14.68,48.78,1020.91,2035.01,3271.13,3092.90,3356.58,600.14,598.58,53.05,0000 0000 0000 0000 000000
2015-09-19 05:20:24,0.02,0.49,0.00,22.92,28.17,30.83,14.66,48.86,1020.77,2035.01,3270.97,3092.28,3356.10,600.21,598.85,53.10,0000 0000 0000 0000 000000
2015-09-19 05:25:26,0.00,0.49,0.00,22.99,28.17,30.81,14.66,48.78,1020.60,2035.00,3270.75,3092.03,3356.00,599.96,598.36,53.15,0000 0000 0000 0000 000000
2015-09-19 05:30:27,0.01,0.49,0.00,22.96,28.17,30.83,14.71,48.76,1020.57,2035.00,3270.41,3092.00,3356.00,600.15,598.67,53.20,0000 0000 0000 0000 000000
2015-09-19 05:35:29,0.00,0.49,0.00,23.00,28.17,30.82,14.62,48.80,1020.55,2035.01,3270.03,3092.00,3355.98,599.88,598.22,53.25,0000 0000 0000 0000 000000
2015-09-19 05:40:30,0.00,0.49,0.00,23.14,28.17,30.83,14.62,48.87,1020.54,2035.00,3269.98,3091.99,3355.54,599.78,597.84,53.30,0000 0000 0000 0000 000000
2015-09-19 05:45:31,0.03,0.49,0.00,23.10,28.17,30.81,14.54,48.84,1020.52,2035.01,3269.29,3091.59,3355.14,600.06,598.19,53.36,0000 0000 0000 0000 000000
2015-09-19 05:50:32,0.01,0.49,0.00,23.21,28.17,30.82,14.61,48.63,1020.52,2035.01,3269.01,3091.17,3355.00,600.21,598.11,53.41,0000 0000 0000 0000 000000
2015-09-19 05:55:34,0.00,0.49,0.00,23.25,28.17,30.83,14.64,48.57,1020.52,2035.01,3268.97,3091.03,3354.99,599.97,597.82,53.46,0000 0000 0000 0000 000000
2015-09-19 06:00:36,0.00,0.49,0.00,23.21,28.18,30.82,14.61,48.66,1020.52,2035.00,3268.89,3091.00,3354.96,600.12,597.98,53.51,0000 0000 0000 0000 000000
2015-09-19 06:05:37,0.01,0.49,0.00,23.32,28.19,30.83,14.61,48.69,1020.52,2035.00,3268.72,3091.00,3354.71,600.35,598.10,53.56,0000 0000 0000 0000 000000
2015-09-19 06:10:38,0.02,0.49,0.00,23.30,28.20,30.88,14.65,48.67,1020.52,2035.00,3268.11,3090.95,3354.15,599.82,597.55,53.61,0000 0000 0000 0000 000000
2015-09-19 06:15:40,0.00,0.49,0.00,23.27,28.20,30.84,14.62,48.69,1020.52,2035.00,3267.99,3090.71,3354.01,600.13,597.92,53.66,0000 0000 0000 0000 000000
2015-09-19 06:20:41,0.02,0.49,0.00,23.39,28.21,30.86,14.65,48.79,1020.52,2035.00,3267.74,3090.17,3354.00,600.22,597.74,53.71,0000 0000 0000 0000 000000
2015-09-19 06:25:42,0.01,0.50,0.00,23.40,28.22,30.88,14.65,48.83,1020.52,2035.00,3267.02,3090.00,3353.81,600.10,597.64,53.76,0000 0000 0000 0000 000000
2015-09-19 06:30:44,0.01,0.50,0.00,23.46,28.23,30.86,14.59,48.67,1020.51,2035.00,3266.74,3089.98,3353.18,600.17,597.56,53.81,0000 0000 0000 0000 000000
2015-09-19 06:35:45,0.02,0.50,0.00,23.52,28.25,30.91,14.57,48.65,1020.50,2035.00,3266.07,3089.73,3353.00,600.04,597.29,53.86,0000 0000 0000 0000 000000
2015-09-19 06:40:46,0.01,0.50,0.00,23.50,28.25,30.94,14.59,48.67,1020.45,2035.00,3266.00,3089.14,3352.98,599.94,597.20,53.91,0000 0000 0000 0000 000000
2015-09-19 06:45:47,0.01,0.50,0.00,23.51,28.25,30.90,14.49,48.75,1020.32,2035.00,3265.75,3089.01,3352.65,599.91,596.92,53.96,0000 0000 0000 0000 000000
2015-09-19 06:50:49,0.01,0.50,0.00,23.58,28.27,30.92,14.61,48.58,1020.18,2035.00,3265.52,3089.00,3352.17,599.91,596.91,54.01,0000 0000 0000 0000 000000
2015-09-19 06:55:50,0.00,0.50,0.00,23.57,28.27,30.94,14.60,48.61,1020.18,2034.97,3265.22,3088.99,3352.00,600.04,597.02,54.06,0000 0000 0000 0000 000000
2015-09-19 07:00:51,0.01,0.50,0.00,23.61,28.27,30.92,14.56,48.66,1020.12,2034.98,3264.96,3088.77,3351.99,599.82,596.71,54.11,0000 0000 0000 0000 000000
2015-09-19 07:05:52,0.02,0.50,0.00,23.64,28.27,30.96,14.53,48.58,1020.13,2034.94,3264.52,3088.12,3351.57,599.69,596.56,54.16,0000 0000 0000 0000 000000
2015-09-19 07:10:54,0.01,0.50,0.00,23.62,28.30,30.92,14.50,48.68,1020.15,2034.90,3264.04,3088.00,3351.11,599.83,596.72,54.22,0000 0000 0000 0000 000000
2015-09-19 07:15:55,-0.02,0.50,0.00,23.67,28.30,30.95,14.48,48.77,1020.11,2034.73,3264.00,3088.00,3351.00,599.44,596.14,54.27,0000 0000 0000 0000 000000
2015-09-19 07:20:57,0.02,0.50,0.00,23.70,28.30,31.01,14.53,48.63,1020.08,2034.81,3263.62,3087.97,3351.00,599.82,596.49,54.32,0000 0000 0000 0000 000000
2015-09-19 07:25:58,0.02,0.50,0.00,23.73,28.31,30.95,14.61,48.70,1020.05,2034.88,3263.04,3087.69,3350.92,599.72,596.29,54.37,0000 0000 0000 0000 000000
2015-09-19 07:30:59,-0.01,0.50,0.00,23.75,28.32,30.99,14.54,48.55,1020.05,2034.67,3263.00,3087.11,3350.21,600.30,596.84,54.42,0000 0000 0000 0000 000000
2015-09-19 07:36:00,0.03,0.50,0.00,23.78,28.32,30.99,14.57,48.66,1020.05,2034.72,3262.76,3087.00,3350.00,599.75,596.22,54.47,0000 0000 0000 0000 000000
2015-09-19 07:41:02,0.01,0.51,0.00,23.83,28.32,31.01,14.50,48.68,1020.05,2034.86,3262.06,3087.00,3350.00,599.74,596.15,54.52,0000 0000 0000 0000 000000
2015-09-19 07:46:03,0.00,0.51,0.00,23.86,28.34,31.05,14.49,48.61,1020.04,2034.89,3262.00,3086.97,3349.95,599.72,595.93,54.57,0000 0000 0000 0000 000000
2015-09-19 07:51:04,0.00,0.51,0.00,23.86,28.35,31.06,14.58,48.52,1020.04,2034.66,3261.74,3086.46,3349.33,599.70,596.17,54.62,0000 0000 0000 0000 000000
2015-09-19 07:56:05,0.03,0.51,0.00,23.84,28.35,31.11,14.54,48.63,1020.04,2034.59,3261.06,3086.02,3349.01,599.93,596.28,54.67,0000 0000 0000 0000 000000
2015-09-19 08:01:06,-0.01,0.51,0.00,23.85,28.35,31.02,14.51,48.51,1020.03,2034.55,3260.98,3086.00,3349.00,600.05,596.38,54.72,0000 0000 0000 0000 000000
2015-09-19 08:06:07,0.01,0.51,0.00,23.85,28.35,31.04,14.61,48.52,1020.02,2034.45,3260.33,3085.98,3348.90,600.52,596.66,54.77,0000 0000 0000 0000 000000
2015-09-19 08:11:08,0.03,0.51,0.00,23.87,28.35,31.02,14.54,48.44,1020.02,2034.66,3260.01,3085.93,3348.47,600.13,596.36,54.82,0000 0000 0000 0000 000000
2015-09-19 08:16:10,-0.00,0.51,0.00,23.90,28.35,31.06,14.54,48.48,1020.00,2034.44,3259.91,3085.32,3348.04,599.93,596.13,54.87,0000 0000 0000 0000 000000
2015-09-19 08:21:11,-0.00,0.51,0.00,23.92,28.36,31.08,14.54,48.53,1019.99,2034.23,3259.14,3085.01,3347.99,599.77,595.90,54.92,0000 0000 0000 0000 000000
2015-09-19 08:26:12,0.01,0.51,0.00,23.96,28.37,31.02,14.54,48.58,1019.91,2034.14,3258.99,3084.99,3347.73,599.96,595.95,54.97,0000 0000 0000 0000 000000
2015-09-19 08:31:14,0.01,0.51,0.00,24.01,28.37,30.98,14.53,48.67,1019.83,2034.24,3258.92,3084.96,3347.24,600.22,596.12,55.02,0000 0000 0000 0000 000000
2015-09-19 08:36:15,0.01,0.51,0.00,24.09,28.37,30.98,14.56,48.58,1019.82,2034.04,3258.31,3084.59,3347.00,600.35,596.07,55.07,0000 0000 0000 0000 000000
2015-09-19 08:41:16,0.01,0.51,0.00,24.14,28.39,31.03,14.43,48.64,1019.77,2034.02,3258.15,3084.14,3346.99,599.88,595.32,55.12,0000 0000 0000 0000 000000
2015-09-19 08:46:17,0.00,0.51,0.00,24.15,28.40,31.05,14.48,48.43,1019.76,2034.01,3258.00,3084.01,3346.81,600.43,595.97,55.17,0000 0000 0000 0000 000000
2015-09-19 08:51:18,0.01,0.51,0.00,24.15,28.41,31.08,14.49,48.58,1019.75,2034.00,3257.93,3084.00,3346.21,599.99,595.53,55.22,0000 0000 0000 0000 000000
2015-09-19 08:56:20,0.02,0.51,0.00,24.11,28.42,31.13,14.53,48.63,1019.72,2034.00,3257.19,3083.85,3346.01,599.95,595.56,55.28,0000 0000 0000 0000 000000
2015-09-19 09:01:21,0.02,0.51,0.00,24.08,28.42,31.17,14.48,48.57,1019.70,2034.00,3256.80,3083.24,3345.97,599.76,595.44,55.33,0000 0000 0000 0000 000000
2015-09-19 09:06:22,0.02,0.52,0.00,24.08,28.44,31.19,14.48,48.61,1019.65,2034.00,3256.06,3083.01,3345.45,599.69,595.35,55.38,0000 0000 0000 0000 000000
2015-09-19 09:11:24,0.00,0.52,0.00,24.06,28.45,31.28,14.54,48.55,1019.66,2034.00,3255.99,3082.99,3345.02,600.30,595.86,55.43,0000 0000 0000 0000 000000
2015-09-19 09:16:25,0.03,0.52,0.00,24.07,28.45,31.31,14.49,48.58,1019.66,2033.99,3255.36,3082.59,3344.98,600.12,595.64,55.48,0000 0000 0000 0000 000000
2015-09-19 09:21:26,0.01,0.52,0.00,24.06,28.45,31.32,14.51,48.58,1019.63,2033.99,3255.00,3082.09,3344.64,599.74,595.43,55.53,0000 0000 0000 0000 000000
2015-09-19 09:26:27,0.01,0.52,0.00,24.09,28.46,31.35,14.59,48.52,1019.61,2033.98,3254.96,3082.01,3344.12,600.73,596.34,55.58,0000 0000 0000 0000 000000
2015-09-19 09:31:29,0.01,0.52,0.00,24.06,28.47,31.37,14.54,48.67,1019.67,2033.98,3254.39,3082.00,3344.01,600.16,595.91,55.63,0000 0000 0000 0000 000000
2015-09-19 09:36:30,0.00,0.52,0.00,24.05,28.47,31.41,14.55,48.67,1019.69,2033.99,3254.01,3081.92,3343.98,599.93,595.66,55.68,0000 0000 0000 0000 000000
2015-09-19 09:41:32,0.03,0.52,0.00,24.08,28.47,31.27,14.55,48.63,1019.71,2033.97,3253.63,3081.27,3343.44,599.34,595.00,55.73,0000 0000 0000 0000 000000
2015-09-19 09:46:33,0.01,0.52,0.00,24.06,28.47,31.24,14.48,48.45,1019.69,2033.95,3253.03,3081.01,3343.01,600.03,595.66,55.78,0000 0000 0000 0000 000000
2015-09-19 09:51:35,0.00,0.52,0.00,24.03,28.47,31.33,14.49,48.52,1019.72,2033.96,3252.98,3081.00,3343.00,599.86,595.65,55.83,0000 0000 0000 0000 000000
2015-09-19 09:56:36,0.01,0.52,0.00,24.02,28.47,31.35,14.49,48.57,1019.81,2033.97,3252.49,3080.98,3342.96,599.56,595.41,55.88,0000 0000 0000 0000 000000
2015-09-19 10:01:37,0.01,0.52,0.00,24.01,28.47,31.36,14.51,48.67,1019.85,2033.85,3252.06,3080.70,3342.37,599.85,595.78,55.93,0000 0000 0000 0000 000000
2015-09-19 10:06:38,0.01,0.52,0.00,23.96,28.46,31.29,14.53,48.64,1019.86,2033.81,3251.98,3080.11,3342.01,599.89,596.03,55.98,0000 0000 0000 0000 000000
2015-09-19 10:11:40,0.00,0.52,0.00,23.97,28.45,31.38,14.58,48.58,1019.88,2033.78,3251.74,3080.03,3342.00,600.26,596.29,56.03,0000 0000 0000 0000 000000
2015-09-19 10:16:41,-0.00,0.52,0.00,23.93,28.45,31.29,14.56,48.59,1019.92,2033.66,3251.28,3080.01,3341.97,600.05,596.14,56.08,0000 0000 0000 0000 000000
2015-09-19 10:21:42,-0.01,0.52,0.00,23.92,28.45,31.39,14.52,48.64,1019.83,2033.49,3251.01,3080.00,3341.76,600.11,596.21,56.13,0000 0000 0000 0000 000000
2015-09-19 10:26:43,0.02,0.52,0.00,23.91,28.45,31.37,14.44,48.53,1019.77,2033.44,3250.72,3079.93,3341.13,599.90,595.85,56.19,0000 0000 0000 0000 000000
2015-09-19 10:31:45,0.01,0.53,0.00,23.88,28.43,31.36,14.54,48.51,1019.67,2033.34,3250.06,3079.46,3341.00,599.96,596.02,56.24,0000 0000 0000 0000 000000
2015-09-19 10:36:46,0.03,0.53,0.00,23.85,28.42,31.28,14.58,48.64,1019.63,2033.54,3250.00,3079.18,3341.00,600.25,596.43,56.29,0000 0000 0000 0000 000000
2015-09-19 10:41:47,-0.00,0.53,0.00,23.84,28.42,31.26,14.52,48.48,1019.61,2033.51,3249.73,3079.03,3340.95,599.96,596.01,56.34,0000 0000 0000 0000 000000
2015-09-19 10:46:48,0.01,0.53,0.00,23.84,28.41,31.39,14.59,48.60,1019.64,2033.47,3249.10,3079.00,3340.56,599.99,596.14,56.39,0000 0000 0000 0000 000000
2015-09-19 10:51:49,0.03,0.53,0.00,23.84,28.40,31.41,14.57,48.49,1019.58,2033.65,3249.00,3078.99,3340.09,600.08,596.15,56.44,0000 0000 0000 0000 000000
2015-09-19 10:56:51,0.02,0.53,0.00,23.83,28.40,31.39,14.53,48.57,1019.57,2033.85,3248.86,3078.96,3340.02,599.97,595.90,56.49,0000 0000 0000 0000 000000
2015-09-19 11:01:52,0.01,0.53,0.00,23.81,28.38,31.42,14.58,48.54,1019.56,2033.94,3248.34,3078.95,3340.00,600.35,596.50,56.54,0000 0000 0000 0000 000000
2015-09-19 11:06:54,0.01,0.53,0.00,23.79,28.37,31.42,14.56,48.52,1019.56,2033.93,3248.03,3078.65,3340.00,599.59,595.75,56.59,0000 0000 0000 0000 000000
2015-09-19 11:11:55,0.01,0.53,0.00,23.72,28.37,31.26,14.57,48.52,1019.56,2033.95,3247.87,3078.09,3339.90,599.60,595.91,56.64,0000 0000 0000 0000 000000
2015-09-19 11:16:56,0.02,0.53,0.00,23.68,28.35,31.08,14.53,48.61,1019.55,2033.96,3247.28,3078.01,3339.38,599.97,596.35,56.69,0000 0000 0000 0000 000000
2015-09-19 11:21:57,0.01,0.53,0.00,23.69,28.35,31.14,14.54,48.50,1019.55,2033.95,3247.19,3078.00,3339.07,600.01,596.15,56.74,0000 0000 0000 0000 000000
2015-09-19 11:26:58,0.00,0.53,0.00,23.64,28.33,31.10,14.58,48.69,1019.55,2033.97,3247.00,3078.00,3339.01,599.72,596.17,56.79,0000 0000 0000 0000 000000
2015-09-19 11:32:00,0.00,0.53,0.00,23.65,28.32,31.10,14.51,48.57,1019.55,2033.96,3246.91,3077.97,3339.00,599.63,596.05,56.84,0000 0000 0000 0000 000000
2015-09-19 11:37:01,0.01,0.54,0.00,23.66,28.32,31.14,14.60,48.63,1019.55,2033.96,3246.30,3077.83,3338.96,600.13,596.52,56.89,0000 0000 0000 0000 000000
2015-09-19 11:42:02,0.01,0.54,0.00,23.67,28.30,31.11,14.53,48.54,1019.55,2033.98,3246.00,3077.44,3338.91,599.97,596.45,56.94,0000 0000 0000 0000 000000
2015-09-19 11:47:03,0.01,0.54,0.00,23.67,28.30,31.14,14.44,48.41,1019.54,2033.99,3245.91,3077.20,3338.72,599.78,596.15,56.99,0000 0000 0000 0000 000000
2015-09-19 11:52:05,0.02,0.54,0.00,23.60,28.29,31.03,14.60,48.62,1019.53,2033.99,3245.13,3077.03,3338.09,599.75,596.29,57.04,0000 0000 0000 0000 000000
2015-09-19 11:57:06,0.00,0.54,0.00,23.60,28.27,30.97,14.53,48.50,1019.52,2033.99,3245.02,3077.00,3338.01,600.13,596.67,57.09,0000 0000 0000 0000 000000
2015-09-19 12:02:06,0.00,0.54,0.00,23.57,28.27,31.05,14.57,48.58,1019.47,2033.99,3244.99,3077.00,3338.00,600.01,596.59,57.15,0000 0000 0000 0000 000000
2015-09-19 12:07:07,0.00,0.54,0.00,23.42,28.26,30.97,14.53,48.73,1019.40,2033.99,3244.82,3077.00,3338.00,599.75,596.57,57.20,0000 0000 0000 0000 000000
2015-09-19 12:12:09,0.01,0.54,0.00,23.45,28.25,30.92,14.54,48.63,1019.35,2033.99,3244.14,3076.96,3337.99,599.90,596.54,57.25,0000 0000 0000 0000 000000
2015-09-19 12:17:10,0.00,0.54,0.00,23.46,28.25,31.03,14.48,48.48,1019.31,2033.99,3244.00,3076.84,3337.79,599.70,596.47,57.30,0000 0000 0000 0000 000000
2015-09-19 12:22:11,0.02,0.54,0.00,23.43,28.22,30.98,14.61,48.59,1019.12,2034.00,3243.97,3076.43,3337.32,600.31,597.01,57.35,0000 0000 0000 0000 000000
2015-09-19 12:27:12,0.01,0.54,0.00,23.49,28.22,31.00,14.62,48.58,1019.09,2034.01,3243.84,3076.10,3337.03,600.27,596.82,57.40,0000 0000 0000 0000 000000
2015-09-19 12:32:13,0.01,0.54,0.00,23.43,28.22,30.96,14.62,48.55,1019.07,2034.00,3243.20,3076.02,3337.00,600.14,596.88,57.45,0000 0000 0000 0000 000000
2015-09-19 12:37:14,-0.00,0.54,0.00,23.47,28.21,30.96,14.57,48.60,1019.06,2034.01,3243.00,3076.00,3337.00,600.30,596.83,57.50,0000 0000 0000 0000 000000
2015-09-19 12:42:16,0.00,0.54,0.00,23.39,28.20,30.94,14.56,48.63,1019.06,2034.01,3242.94,3075.99,3336.97,600.03,596.71,57.55,0000 0000 0000 0000 000000
2015-09-19 12:47:17,0.00,0.54,0.00,23.35,28.20,30.89,14.62,48.78,1019.06,2034.02,3242.62,3075.99,3336.93,600.22,596.94,57.60,0000 0000 0000 0000 000000
2015-09-19 12:52:18,0.01,0.54,0.00,23.38,28.18,30.94,14.55,48.67,1019.06,2034.04,3242.05,3075.96,3336.55,599.90,596.60,57.65,0000 0000 0000 0000 000000
2015-09-19 12:57:19,0.01,0.54,0.00,23.24,28.17,30.89,14.66,48.71,1019.06,2034.08,3241.98,3075.81,3336.16,600.29,597.26,57.70,0000 0000 0000 0000 000000